Home > Time Zones > World Clock > Weather > Italy > Milan > Past weeks

Flag for Italy Weather past 2 weeks in Milan, Italy

Now
41 °F

Fog.


Feels Like: 38 °F
Forecast: 39 / 50 °F
Wind: 5 mph from Southeast

Location: Milan / Linate

Current Time: Dec 19, 2014 at 10:30:12 PM

Latest Report: Dec 19, 2014 at 9:50 PM


Visibility: 0 mi

Pressure: 30.18 "Hg

Humidity: 100%

Dew point: 41 °F

Location of MilanLocation

Historic Weather in Milan — Graph

°F

Milan temperature yesterday

Maximum temperature yesterday: 50 °F (at 2:50 PM)
Minimum temperature yesterday: 37 °F (at 5:20 AM)
Average temperature yesterday: 43 °F

Past Weeks' High & Low Weather Summary

 TemperatureHumidityPressure
High55 °F (Dec 6, 1:50 PM)100% (Dec 4, 8:50 PM)30.24 "Hg (Dec 4, 8:50 PM)
Low30 °F (Dec 10, 6:50 AM)62% (Dec 9, 12:20 PM)29.83 "Hg (Dec 16, 2:50 PM)
Average44 °F94%30.06 "Hg
* Reported Dec 4 8:20 PM — Dec 19 8:50 PM, Milan, Weather by CustomWeather, © 2014

Note: Actual official high and low records may vary slightly from our data, if they occured in-between our weather recording intervals... More about our weather records

Advertising

Milan weather history for previous 24 hours

 ConditionsComfort  
Time TempWeatherWind HumidityBarometerVisibility
8:50 PM
Dec 19
43 °FFog.3 mph100%30.18 "Hg1 mi
8:20 PM45 °FFog.5 mph100%30.18 "Hg1 mi
7:50 PM45 °FFog.3 mph100%30.18 "Hg2 mi
7:20 PM46 °FFog.2 mph93%30.18 "Hg3 mi
6:50 PM46 °FFog.3 mph93%30.15 "Hg3 mi
6:20 PM46 °FClear.2 mph93%30.15 "Hg4 mi
5:50 PM46 °FClear.5 mph93%30.15 "Hg5 mi
5:20 PM46 °FClear.2 mph93%30.15 "Hg4 mi
4:50 PM46 °FClear.3 mph87%30.15 "Hg4 mi
4:20 PM48 °FClear.5 mph87%30.15 "Hg4 mi
3:50 PM52 °FClear.1 mph77%30.15 "Hg5 mi
3:20 PM52 °FClear.3 mph82%30.15 "Hg6 mi
2:50 PM52 °FClear.1 mph77%30.15 "Hg6 mi
2:20 PM52 °FClear.3 mph77%30.15 "Hg6 mi
1:50 PM52 °FClear.3 mph77%30.18 "Hg5 mi
1:20 PM50 °FClear.2 mph82%30.18 "Hg5 mi
12:50 PM50 °FClear.2 mph88%30.21 "Hg4 mi
12:20 PM48 °FClear.3 mph94%30.21 "Hg4 mi
11:50 AM46 °FClear.3 mph100%30.21 "Hg4 mi
11:20 AM45 °FFog.1 mph100%30.24 "Hg3 mi
10:50 AM45 °FFog.1 mph100%30.24 "Hg2 mi
10:20 AM41 °FFog.1 mph100%30.24 "Hg1 mi
9:50 AM39 °FFog.1 mph100%30.24 "Hg1 mi
9:20 AM37 °FFog.1 mph100%30.24 "Hg1 mi
8:50 AM37 °FFog.1 mph87%30.21 "Hg1 mi
8:20 AM37 °FFog.No wind100%30.21 "Hg0 mi
7:50 AM36 °FFog.No wind93%30.21 "Hg0 mi
7:20 AM36 °FFog.1 mph93%30.21 "Hg0 mi
6:50 AM36 °FFog.No wind93%30.21 "Hg0 mi
6:20 AM36 °FFog.No wind93%30.18 "Hg0 mi
5:50 AM36 °FFog.No wind93%30.21 "Hg0 mi
5:20 AM36 °FFog.2 mph100%30.18 "Hg0 mi
4:50 AM37 °FFog.No wind100%30.18 "Hg0 mi
4:20 AM36 °FFog.2 mph100%30.21 "Hg0 mi
3:50 AM36 °FFog.2 mph100%30.21 "Hg0 mi
3:20 AM37 °FFog.2 mph100%30.21 "Hg0 mi
2:50 AM37 °FFog.1 mph100%30.21 "Hg0 mi
2:20 AM37 °FFog.2 mph100%30.21 "Hg0 mi
1:50 AM37 °FFog.3 mph100%30.18 "Hg1 mi
1:20 AM37 °FFog.1 mph100%30.21 "Hg1 mi
12:50 AM39 °FLight fog.3 mph100%30.21 "Hg1 mi
11:50 PM
Dec 18
41 °FLight fog.1 mph100%30.21 "Hg5 mi
11:20 PM41 °FFog.2 mph100%30.21 "HgN/A
10:50 PM43 °FFog.2 mph100%30.21 "HgN/A
10:20 PM45 °FFog.3 mph100%30.21 "HgN/A
Weather by CustomWeather, © 2014

See weather overviewHow to use our weather pages